Regional Weather Roundup
Issued by NWS Cleveland, OH

Home | Current Version | Previous Version | Graphics & Text | Print | Product List | Glossary On
Versions: 1 2 3 4 5 6 7 8 9 10 11 12 13 14 15 16 17 18 19 20 21 22 23 24 25 26 27 28 29 30 31 32 33 34 35 36 37 38 39 40 41 42 43 44 45 46 47 48 49 50
432
ASUS41 KCLE 240210
RWRCLE
OHIO REGIONAL WEATHER ROUNDUP
NATIONAL WEATHER SERVICE WILMINGTON, OH
1000 PM EDT WED AUG 23 2017

NOTE: "FAIR" INDICATES FEW OR NO CLOUDS BELOW 12,000 FEET WITH NO
SIGNIFICANT WEATHER AND/OR OBSTRUCTIONS TO VISIBILITY.

OHZ001>008-015>018-024>027-034-035-043-044-240300-
   NORTHWEST OHIO

CITY           SKY/WX    TMP DP  RH WIND       PRES   REMARKS
DEFIANCE       FAIR      62  50  64 NW5       30.00R
FINDLAY        FAIR      65  51  60 NW7       29.98R
TOLEDO EXPRESS FAIR      64  53  67 W8        29.98R
TOLEDO EXEC    FAIR      64  53  67 NW7       29.98R
LIMA           FAIR      64  53  67 NW7       30.00R
$$

OHZ009>014-019>023-028>033-038-089-240300-
   NORTHEAST OHIO

CITY           SKY/WX    TMP DP  RH WIND       PRES   REMARKS
CLE-HOPKINS    FAIR      67  56  67 SW5       29.97S
CLE-LAKEFRONT  FAIR      70  55  59 CALM      29.94S
CUY CO. ARPT   PTCLDY    64  55  72 CALM      29.96S
LORAIN-ELYRIA  FAIR      62  56  80 W5        29.97R
ASHTABULA      FAIR      60  58  92 CALM      29.97R
AKRON-CANTON   FAIR      63  52  67 NW3       29.98R
WOOSTER        FAIR      59  57  93 CALM      29.98R
MANSFIELD      FAIR      64  55  72 W3        29.99R
YOUNGSTOWN     FAIR      59  55  87 CALM      29.97R
$$

OHZ042-051>053-060>062-070>072-077>081-240300-
  SOUTHWEST OHIO

CITY           SKY/WX    TMP DP  RH WIND       PRES   REMARKS
CINC-COVINGTON FAIR      68  55  63 NW9       30.00R
CINC-LUNKEN    FAIR      64  58  80 CALM      30.00R
HAMILTON       FAIR      60  57  89 CALM      30.01R
DAYTON         FAIR      64  53  67 NW7       30.02R
WRIGHT-PAT AFB FAIR      67  55  63 NW5       30.00R
DAYTON GENERAL FAIR      67  52  58 N6        30.00R
WILMINGTON     FAIR      61  59  93 CALM      30.00R
$$

OHZ036-037-039>041-045>050-054>059-063>069-073>076-082>088-240300-
  CENTRAL AND SOUTHEAST OHIO

CITY           SKY/WX    TMP DP  RH WIND       PRES   REMARKS
COLUMBUS       FAIR      67  55  65 NW5       29.98R
OSU AIRPORT    FAIR      66  55  67 NW5       29.98R
BOLTON FIELD   FAIR      64  56  73 NW5       29.99S
RICKENBACK AFB FAIR      64  56  75 CALM      29.98R
NEWARK         FAIR      62  58  86 CALM      29.98R
MARION         MOCLDY    66  54  65 W5        29.99R
LANCASTER      FAIR      59  57  93 CALM      29.99R
ZANESVILLE     FAIR      64  57  78 CALM      29.98R
NEW PHILLY     FAIR      61  58  90 SE3       29.98R
$$




USA.gov is the U.S. government's official web portal to all federal, state and local government web resources and services.